Regional Weather Roundup
Issued by NWS

Home | Current Version | Previous Version | Text Only | Print | Product List | Glossary Off
Versions: 1 2 3 4 5 6 7 8 9 10 11 12 13 14 15 16 17 18 19 20 21 22 23 24 25 26 27 28 29 30 31 32 33 34 35 36 37 38 39 40 41 42 43 44 45 46 47 48 49 50

000
ASUS43 KMPX 251710
RWRMN
WEATHER ROUNDUP FOR MINNESOTA
NATIONAL WEATHER SERVICE TWIN CITIES/CHANHASSEN MN
1200 PM CDT FRI JUL 25 2014


NOTE: "FAIR" INDICATES FEW OR NO CLOUDS BELOW 12,000 FEET WITH NO
SIGNIFICANT WEATHER AND/OR OBSTRUCTIONS TO VISIBILITY. N/A MEANS
CURRENT SKY AND/OR WEATHER CONDITIONS ARE NOT AVAILABLE.

MNZ060>063-068>070-251800-
   Twin Cities Metro

CITY           SKY/WX    TMP DP  RH WIND       PRES   REMARKS
TWIN CITIES    CLOUDY    72  65  78 S10       29.81S
ST PAUL        CLOUDY    72  65  78 S12       29.82R
CRYSTAL        CLOUDY    74  64  71 S9        29.80S
BLAINE         CLOUDY    73  68  83 MISG      29.81S
LAKEVILLE      CLOUDY    72  66  83 S7        29.82S
EDEN PRAIRIE   CLOUDY    74  66  76 S10       29.80S
SOUTH ST PAUL  CLOUDY    73  65  75 SW12      29.81S
LAKE ELMO      CLOUDY    73  68  83 SW10      29.83R
$$
MNZ001>005-007-008-013>017-022>024-027-028-251800-
   Northwest Minnesota

CITY           SKY/WX    TMP DP  RH WIND       PRES   REMARKS
BEMIDJI        CLOUDY    73  64  73 W7        29.78S
HALLOCK        SUNNY     75  66  73 S8        29.72F
ROSEAU         MOSUNNY   72  64  78 S5        29.75F
WARROAD        CLOUDY    72  64  78 CALM      29.76F
THIEF RVR FALL CLOUDY    70  64  83 W5        29.77F
CROOKSTON      PTSUNNY   72  64  78 W3        29.77S
FOSSTON        CLOUDY    70  63  78 SW6       29.79S
DETROIT LAKES  PTSUNNY   72  64  78 W3        29.80S
MOORHEAD       CLOUDY    73  70  88 CALM      29.78S
PARK RAPIDS    CLOUDY    73  64  73 SW10      29.79F
$$
MNZ006-009>011-018-025>026-251800-
   North Central Minnesota

CITY           SKY/WX    TMP DP  RH WIND       PRES   REMARKS
BAUDETTE       CLOUDY    70  63  78 SW5       29.78F
FLAG ISLAND    CLOUDY    70  63  78 S6        29.74F
INTL FALLS     CLOUDY    73  63  70 VRB6      29.78F
WASKISH        CLOUDY    70  63  78 CALM      29.78F
BIG FORK       CLOUDY    70  63  78 SW1       29.80F
LONGVILLE      MOSUNNY   75  66  73 S8        29.77F
GRAND RAPIDS   CLOUDY    68  63  83 CALM      29.80S
CRANE LAKE     PTSUNNY   70  63  78 S5        29.81S
ORR            CLOUDY    70  59  68 S3        29.78S
COOK           CLOUDY    70  61  73 S5        29.82R
$$
MNZ012-019>021-037-251800-
   Northeast Minnesota

CITY           SKY/WX    TMP DP  RH WIND       PRES   REMARKS
DULUTH         CLOUDY    67  60  78 SW7       29.82S
ELY            CLOUDY    72  61  68 W6        29.81S
HIBBING        CLOUDY    69  62  78 VRB3      29.82R
EVELETH        CLOUDY    68  61  77 SW3       29.83R
DULUTH HARBOR  CLOUDY    57  54  88 CALM      29.81F
TWO HARBORS    CLOUDY    66  57  72 SE3       29.80S
SILVER BAY     CLOUDY    64  63  94 S5        29.80R
GRAND MARAIS     N/A     58  52  80 E6        29.80F
G MARAIS ARPRT PTSUNNY   70  57  64 CALM      29.84S
$$
MNZ029>031-032-039>041-046>048-054>057-064-251800-
   West Central Minnesota

CITY           SKY/WX    TMP DP  RH WIND       PRES   REMARKS
FERGUS FALLS   PTSUNNY   75  64  69 SW9       29.76R
WHEATON        MOSUNNY   72  66  83 S7        29.77F
MORRIS         SUNNY     75  66  73 S7        29.76S
ALEXANDRIA     CLOUDY    74  66  76 S12       29.80S
ELBOW LAKE     CLOUDY    73  66  81 S10       29.77S
WADENA         PTSUNNY   73  66  78 S7        29.78R
GLENWOOD       MOSUNNY   75  66  73 S10G18    29.79S
APPLETON       MOSUNNY   81  66  61 S10       29.76S
BENSON         PTSUNNY   77  66  69 SW10      29.77S
ORTONVILLE     MOSUNNY   77  66  69 S3        29.76S
MADISON        SUNNY     81  70  69 S7        29.76F
WILLMAR        FAIR      75  64  69 S7        29.79F
$$
MNZ033>034-036-042>043-049>051-058-059-251800-
   Central Minnesota

CITY           SKY/WX    TMP DP  RH WIND       PRES   REMARKS
ST CLOUD       MOSUNNY   77  66  68 SW13      29.79F
SAUK CENTRE    PTSUNNY   77  66  70 S13       29.79F
PAYNESVILLE    MOSUNNY   73  65  75 SE10G17   29.79F
AITKIN         MOSUNNY   75  66  73 SW5       29.78R
PINE RIVER     MOSUNNY   75  66  73 SW9       29.82R
BRAINERD       MOSUNNY   73  65  75 SW9       29.79R
STAPLES        CLOUDY    73  64  73 SW9       29.79R
LONG PRAIRIE   CLOUDY    72  64  78 S10       29.79F
LITTLE FALLS   MOSUNNY   73  63  68 S12G18    29.77F
LITCHFIELD     PTSUNNY   75  70  83 S5        29.79F
BUFFALO        MOSUNNY   76  65  69 S14       29.81S
MAPLE LAKE     MOSUNNY   76  69  78 S6        29.81S
$$
MNZ037-044-045-052-053-251800-
   East Central Minnesota

CITY           SKY/WX    TMP DP  RH WIND       PRES   REMARKS
PRINCETON      PTSUNNY   75  66  73 S9        29.80S
MORA           PTSUNNY   70  63  78 SW10      29.81S
CAMBRIDGE      MOSUNNY   75  63  64 S8        29.78F
RUSH CITY      CLOUDY    71  65  81 S7        29.81F
MOOSE LAKE     CLOUDY    70  63  78 SW3       29.79R
HINCKLEY       CLOUDY    72  66  83 SW8       29.80S
CLOQUET        CLOUDY    66  63  88 CALM      29.82S
MCGREGOR       CLOUDY    72  64  78 W3        29.80R
$$
MNZ071>073-080-081-089-090-097-098-251800-
   Southwest Minnesota

CITY           SKY/WX    TMP DP  RH WIND       PRES   REMARKS
MONTEVIDEO     SUNNY     81  73  78 SW9       29.77F
GRANITE FALLS  SUNNY     77  67  70 S10       29.79S
CANBY          SUNNY     79  67  65 S9        29.78S
MARSHALL       SUNNY     79  64  61 SW14      29.77S
REDWOOD FALLS  CLOUDY    76  65  68 SW9       29.78F
OLIVIA         SUNNY     75  64  69 S10       29.78F
PIPESTONE      MOSUNNY   75  66  73 S9        29.81S
WINDOM         MOSUNNY   75  63  64 S12       29.81S
WORTHINGTON    MOSUNNY   73  64  73 S10       29.83S
JACKSON        MOSUNNY   75  63  64 S14G22    29.82F
TRACY          SUNNY     77  66  68 S13G18    29.79S
SLAYTON        MOSUNNY   75  65  71 S5G20     29.81F
$$
MNZ065>067-074>077-082>085-091>093-251800-
   South Central Minnesota

CITY           SKY/WX    TMP DP  RH WIND       PRES   REMARKS
MANKATO        PTSUNNY   77  63  61 S18G25    29.81F
NEW ULM        SUNNY     77  66  69 S15G23    29.78F
ST JAMES       MOSUNNY   79  64  61 S17G26    29.80F
FAIRMONT       SUNNY     75  57  53 S16G23    29.81F
GLENCOE        MOSUNNY   78  65  62 S13G18    29.79F
FARIBAULT      CLOUDY    79  64  61 S8G16     29.82F
OWATONNA       MOSUNNY   75  66  73 S12G22    29.83F
WASECA         MOSUNNY   77  63  61 S16G23    29.84F
ALBERT LEA     PTSUNNY   75  66  73 S8        29.84S
$$
MNZ078>079-086>088-094>096-251800-
   Southeast Minnesota

CITY           SKY/WX    TMP DP  RH WIND       PRES   REMARKS
ROCHESTER      CLOUDY    71  64  78 S15G23    29.86F
RED WING       PTSUNNY   75  66  73 SW9       29.81S
STANTON        PTSUNNY   75  65  72 S13G18    29.81S
DODGE CENTER   PTSUNNY   72  64  78 S18       29.85F
WINONA         CLOUDY    72  63  73 SW3       29.85F
AUSTIN         MOSUNNY   73  64  73 S13       29.84F
PRESTON        CLOUDY    68  66  92 S16       29.88S
$$
ABBREVIATIONS USED IN REMARKS
   TC - TEMPERATURES IN CELSIUS
  WCI - WIND CHILL INDEX
   HX - HEAT INDEX
  VSB - VISIBILITY
$$



USA.gov is the U.S. government's official web portal to all federal, state and local government web resources and services.